Location: New Frontier Mobile Home Park
(32.8448°N, 116.9675°W)
Time: 23:11:46
(UTC+00:00)

Alouette 2 Rocket - Pass Details

Date: 14 July 2020
Orbit: 502 x 2650 km, 79.8° (Epoch: 05 August)

Event Time Altitude Azimuth Distance (km) Brightness Sun altitude
Rises 04:05:03 0° 353° (N) 3,025 7.8 -12.9°
Reaches altitude 10° 04:06:58 10° 355° (N) 2,263 7.0 -13.2°
Maximum altitude 04:11:59 75° 81° (E) 1,011 4.5 -14.1°
Enters shadow 04:19:50 10° 167° (SSE) 3,485 6.9 -15.4°
